Norwood, MA

3:56 PM EST on February 20, 2017 (GMT -0500)
Norwood Memorial

Weather History for KOWD - May, 2013

Change the Weather History Date:

Friday, May 10, 2013

  Actual Average Record
Temperature  
Mean Temperature 66 °F -  
Max Temperature 80 °F 65 °F 89 °F (2015)
Min Temperature 53 °F 42 °F 32 °F (2016)
Cooling Degree Days 1    
Growing Degree Days 16 (Base 50)    
Moisture  
Dew Point 56 °F    
Average Humidity 81    
Maximum Humidity 100    
Minimum Humidity 42    
Precipitation  
Precipitation 0.00 in - - ()
Sea Level Pressure  
Sea Level Pressure 29.92 in    
Wind  
Wind Speed 3 mph (WSW)    
Max Wind Speed 12 mph    
Max Gust Speed -    
Visibility 7 miles    
Events Fog    
Averages and records for this station are not official NWS values.
T = Trace of Precipitation, MM = Missing Value Source: NWS Daily Summary

Daily Weather History Graph

Daily Weather History Graph

Search for Another Location

Airport or City:

Trip Planner

Search our weather history database for the weather conditions in past years. The results will help you decide how hot, cold, wet, or windy it might be!

Date:

Astronomy

May. 10, 2013 Rise Set
Actual Time 5:28 AM EDT 7:53 PM EDT
Civil Twilight 4:57 AM EDT 8:25 PM EDT
Nautical Twilight 4:18 AM EDT 9:04 PM EDT
Astronomical Twilight 3:34 AM EDT 9:48 PM EDT
Moon 5:50 AM EDT (5/10) 8:41 PM EDT (5/10)
Length of Visible Light 15h 28m
Length of Day
14h 25m
New Moon, 0% of the Moon is Illuminated
May 10
New Moon
May 18
First Quarter
May 25
Full
May 31
Last Quarter
Jun 8
New

Hourly Weather History & Observations

Time (EDT) Temp. Dew Point Humidity Pressure Visibility Wind Dir Wind Speed Gust Speed Precip Events Conditions
12:09 AM 57.2 °F 57.2 °F 100% 29.89 in 2.5 mi NW 4.6 mph - N/A   Overcast
12:29 AM 57.2 °F 57.2 °F 100% 29.90 in 4.0 mi NW 5.8 mph - N/A   Overcast
12:43 AM 57.2 °F 57.2 °F 100% 29.90 in 5.0 mi NW 3.5 mph - N/A   Overcast
1:33 AM 59.0 °F 57.2 °F 94% 29.90 in 9.0 mi WNW 3.5 mph - N/A   Overcast
1:53 AM 59.0 °F 57.9 °F 96% 29.90 in 9.0 mi Calm Calm - N/A   Overcast
2:49 AM 57.2 °F 57.2 °F 100% 29.90 in 10.0 mi Calm Calm - N/A   Mostly Cloudy
2:53 AM 57.9 °F 57.0 °F 97% 29.90 in 9.0 mi Calm Calm - N/A   Mostly Cloudy
3:06 AM 55.4 °F 55.4 °F 100% 29.90 in 1.5 mi Calm Calm - N/A   Mostly Cloudy
3:10 AM 55.4 °F 55.4 °F 100% 29.90 in 0.5 mi Calm Calm - N/A Fog Fog
3:24 AM 55.4 °F 55.4 °F 100% 29.90 in 0.2 mi Calm Calm - N/A Fog Fog
3:46 AM 53.6 °F 53.6 °F 100% 29.90 in 1.2 mi Calm Calm - N/A   Scattered Clouds
3:51 AM 53.6 °F 53.6 °F 100% 29.90 in 0.8 mi Calm Calm - N/A   Mist
3:53 AM 53.1 °F 53.1 °F 100% 29.90 in 0.8 mi Calm Calm - N/A   Mist
4:53 AM 55.0 °F 55.0 °F 100% 29.91 in 0.2 mi Calm Calm - N/A Fog Fog
5:53 AM 55.0 °F 55.0 °F 100% 29.92 in 0.2 mi Calm Calm - N/A Fog Fog
6:39 AM 55.4 °F 55.4 °F 100% 29.93 in 1.0 mi Calm Calm - N/A   Overcast
6:45 AM 55.4 °F 55.4 °F 100% 29.93 in 3.0 mi Calm Calm - N/A   Overcast
6:53 AM 55.9 °F 55.9 °F 100% 29.93 in 7.0 mi Calm Calm - N/A   Overcast
7:37 AM 57.2 °F 55.4 °F 94% 29.95 in 10.0 mi WSW 4.6 mph - N/A   Mostly Cloudy
7:53 AM 57.9 °F 55.9 °F 93% 29.95 in 10.0 mi WSW 3.5 mph - N/A   Mostly Cloudy
8:21 AM 60.8 °F 57.2 °F 88% 29.95 in 10.0 mi WSW 4.6 mph - N/A   Scattered Clouds
8:53 AM 63.0 °F 57.9 °F 84% 29.96 in 10.0 mi West 4.6 mph - N/A   Clear
9:53 AM 68.0 °F 59.0 °F 73% 29.95 in 10.0 mi Calm Calm - N/A   Clear
10:53 AM 71.1 °F 57.9 °F 63% 29.95 in 10.0 mi West 5.8 mph - N/A   Clear
11:53 AM 75.0 °F 57.0 °F 53% 29.94 in 10.0 mi West 5.8 mph - N/A   Partly Cloudy
12:53 PM 75.9 °F 55.9 °F 50% 29.93 in 10.0 mi WSW 4.6 mph - N/A   Partly Cloudy
1:53 PM 77.0 °F 53.1 °F 43% 29.92 in 10.0 mi Calm Calm - N/A   Clear
2:53 PM 79.0 °F 54.0 °F 42% 29.91 in 10.0 mi SW 9.2 mph - N/A   Partly Cloudy
3:53 PM 78.1 °F 54.0 °F 43% 29.91 in 7.0 mi West 5.8 mph - N/A   Partly Cloudy
4:53 PM 75.9 °F 57.9 °F 54% 29.91 in 10.0 mi East 11.5 mph - N/A   Overcast
5:53 PM 75.0 °F 57.9 °F 55% 29.90 in 10.0 mi ESE 8.1 mph - N/A   Mostly Cloudy
6:30 PM 75.2 °F 57.2 °F 53% 29.89 in 10.0 mi SSE 5.8 mph - N/A   Partly Cloudy
6:53 PM 75.0 °F 55.9 °F 51% 29.90 in 10.0 mi North - - N/A   Clear
7:53 PM 70.0 °F 55.9 °F 61% 29.92 in 10.0 mi SSE 5.8 mph - N/A   Clear
8:53 PM 66.9 °F 55.0 °F 66% 29.93 in 10.0 mi South 4.6 mph - N/A   Clear
9:53 PM 66.0 °F 55.0 °F 68% 29.94 in 10.0 mi SSW 4.6 mph - N/A   Clear
10:53 PM 64.0 °F 54.0 °F 70% 29.93 in 10.0 mi South 3.5 mph - N/A   Clear
11:53 PM 63.0 °F 54.0 °F 72% 29.93 in 10.0 mi South 5.8 mph - N/A   Clear